DW7601 San Vito IT current weather conditions

sailwx.info

Wind from 075 at 2 knots gusting 6

Air temperature 25.0° C
Dewpoint 8.9° C

Last reported at 2015-Apr-21 13:51 UTC.
Time now 2015-Apr-21 14:40 UTC

Location: N 39°27' E 009°32'.
View on Google Maps.

See reports from other nearby stations

  
Tides and Currents Weather Stations Pressure Air Temp Water Temp Dewpoint Dewpoint Depression Visibility Wind Speed Wind Dir Waves Ship Positions
date/time (UTC)wind fromknots sea level pressurealtimeterstation pressurevisibilityair tempwater tempwave heightnotes
2015-Apr-21 13:51 075 2 gusting 6 25.0
2015-Apr-21 13:41 119 4 gusting 6 25.0
2015-Apr-21 13:31 118 2 gusting 5 25.6
2015-Apr-21 13:21 199 2 gusting 5 25.6
2015-Apr-21 13:11 089 2 gusting 4 25.6
2015-Apr-21 13:01 101 2 gusting 6 25.6
2015-Apr-21 12:51 084 2 gusting 6 25.6
2015-Apr-21 12:41 024 1 gusting 6 25.6
2015-Apr-21 12:31 083 2 gusting 6 26.1
2015-Apr-21 12:21 119 1 gusting 6 26.1
2015-Apr-21 12:11 104 2 gusting 5 26.1
2015-Apr-21 12:01 169 2 gusting 6 26.1
2015-Apr-21 11:51 139 2 gusting 6 25.6
2015-Apr-21 11:41 123 2 gusting 8 25.6
2015-Apr-21 11:31 097 3 gusting 6 25.6
2015-Apr-21 11:21 097 2 gusting 6 25.0
2015-Apr-21 11:11 048 4 gusting 6 25.0
2015-Apr-21 11:01 075 2 gusting 6 25.0
2015-Apr-21 10:51 105 4 gusting 6 25.0
2015-Apr-21 10:41 251 2 gusting 7 25.0
2015-Apr-21 10:31 112 2 gusting 7 25.0
2015-Apr-21 10:21 076 2 gusting 6 25.0
2015-Apr-21 10:11 120 3 gusting 5 24.4
2015-Apr-21 10:01 094 4 gusting 5 24.4
2015-Apr-21 09:51 059 4 gusting 6 24.4
2015-Apr-21 09:41 079 2 gusting 6 24.4
2015-Apr-21 09:31 129 1 gusting 4 24.4
2015-Apr-21 09:21 076 1 gusting 4 24.4
2015-Apr-21 09:11 068 2 gusting 6 23.9
2015-Apr-21 09:01 112 2 gusting 6 23.3
2015-Apr-21 08:51 090 1 gusting 5 23.3
2015-Apr-21 08:41 168 0 gusting 5 22.8
2015-Apr-21 08:31 135 0 gusting 5 22.2
2015-Apr-21 08:21 180 0 gusting 1 21.7
2015-Apr-21 08:11 045 0 gusting 1 21.1
2015-Apr-21 08:01 090 20.6
2015-Apr-21 07:51 158 20.0
2015-Apr-21 07:41 163 18.9
2015-Apr-21 07:31 113 1 gusting 1 18.3
2015-Apr-21 07:21 054 1 gusting 2 17.2
2015-Apr-21 07:11 044 0 gusting 2 16.7
2015-Apr-21 07:01 005 1 gusting 4 15.6
2015-Apr-21 06:51 068 1 gusting 4 15.0
2015-Apr-21 06:41 015 0 gusting 2 14.4
2015-Apr-21 06:31 083 1 gusting 4 13.9
2015-Apr-21 06:21 052 1 gusting 2 13.3
2015-Apr-21 06:11 015 1 gusting 4 12.8
2015-Apr-21 06:01 057 1 gusting 4 12.8
2015-Apr-21 05:51 032 1 gusting 6 12.2
2015-Apr-21 05:41 022 1 gusting 4 12.2
2015-Apr-21 05:31 12.2
2015-Apr-21 05:21 022 0 gusting 2 12.2
2015-Apr-21 05:11 012 0 gusting 2 12.2
2015-Apr-21 05:01 12.2
2015-Apr-21 04:51 042 1 gusting 4 12.2
2015-Apr-21 04:41 022 0 gusting 2 12.2
2015-Apr-21 04:31 045 12.2
2015-Apr-21 04:21 186 12.2
2015-Apr-21 04:11 036 12.8
2015-Apr-21 04:01 060 12.8
2015-Apr-21 03:51 027 12.8
2015-Apr-21 03:41 220 13.3
2015-Apr-21 03:31 011 13.3
2015-Apr-21 03:21 004 0 gusting 1 13.3
2015-Apr-21 03:11 258 1 gusting 2 13.3
2015-Apr-21 03:01 022 0 gusting 1 13.3
2015-Apr-21 02:51 024 0 gusting 2 13.3
2015-Apr-21 02:41 015 0 gusting 2 13.3
2015-Apr-21 02:31 090 1 gusting 2 13.9
2015-Apr-21 02:21 016 1 gusting 2 13.9
2015-Apr-21 02:11 303 1 gusting 2 13.9
2015-Apr-21 02:01 341 1 gusting 4 13.9
2015-Apr-21 01:51 049 1 gusting 2 13.9
2015-Apr-21 01:41 357 1 gusting 6 13.9
2015-Apr-21 01:31 015 1 gusting 4 13.9
2015-Apr-21 01:21 022 1 gusting 4 13.9
2015-Apr-21 01:11 004 0 gusting 1 13.3
2015-Apr-21 01:01 034 13.3
2015-Apr-21 00:51 074 13.3
2015-Apr-21 00:41 078 13.3
2015-Apr-21 00:31 010 13.3
2015-Apr-21 00:21 012 13.3
2015-Apr-21 00:11 063 13.3
2015-Apr-21 00:01 195 13.3
2015-Apr-20 23:51 039 13.3
2015-Apr-20 23:41 359 13.9
2015-Apr-20 23:31 042 13.9
2015-Apr-20 23:21 026 13.9
2015-Apr-20 23:11 252 0 gusting 2 13.9
2015-Apr-20 23:01 270 0 gusting 2 13.9
2015-Apr-20 22:51 067 13.9
2015-Apr-20 22:41 046 14.4
2015-Apr-20 22:31 217 14.4
2015-Apr-20 22:21 049 14.4
2015-Apr-20 22:11 270 0 gusting 0 15.0
2015-Apr-20 22:01 265 0 gusting 1 15.0
2015-Apr-20 21:51 353 0 gusting 1 15.0
2015-Apr-20 21:41 202 0 gusting 1 15.6
2015-Apr-20 21:31 174 0 gusting 1 15.6
2015-Apr-20 21:21 237 0 gusting 1 16.1
2015-Apr-20 21:11 350 0 gusting 1 16.1
2015-Apr-20 21:01 005 0 gusting 1 16.1
2015-Apr-20 20:51 063 0 gusting 1 16.1
2015-Apr-20 20:41 324 16.1
2015-Apr-20 20:31 003 0 gusting 2 16.7
2015-Apr-20 20:21 049 0 gusting 1 16.7
2015-Apr-20 20:11 018 1 gusting 4 16.7
2015-Apr-20 20:01 018 2 gusting 5 16.7
2015-Apr-20 19:51 029 2 gusting 5 16.7
2015-Apr-20 19:41 301 2 gusting 5 17.2
2015-Apr-20 19:31 312 2 gusting 6 17.2
2015-Apr-20 19:21 342 4 gusting 8 17.2
2015-Apr-20 19:11 301 4 gusting 8 17.2
2015-Apr-20 19:01 281 2 gusting 6 17.8
2015-Apr-20 18:51 319 2 gusting 6 17.8
2015-Apr-20 18:41 17.8
2015-Apr-20 18:31 034 1 gusting 4 17.8
2015-Apr-20 18:21 274 2 gusting 5 17.2
2015-Apr-20 18:11 251 1 gusting 5 17.8
2015-Apr-20 18:01 090 0 gusting 2 17.8
2015-Apr-20 17:51 162 0 gusting 1 18.3
2015-Apr-20 17:41 108 0 gusting 1 18.3
2015-Apr-20 17:31 112 0 gusting 2 18.3
2015-Apr-20 17:21 109 0 gusting 2 18.9
2015-Apr-20 17:11 099 0 gusting 1 18.9
2015-Apr-20 17:01 107 1 gusting 2 19.4
2015-Apr-20 16:51 109 1 gusting 2 19.4
2015-Apr-20 16:41 090 1 gusting 2 20.0
2015-Apr-20 16:31 038 1 gusting 4 20.0
2015-Apr-20 16:21 108 1 gusting 4 20.0
2015-Apr-20 16:11 093 1 gusting 4 20.0
2015-Apr-20 16:01 167 1 gusting 4 20.0
2015-Apr-20 15:51 132 1 gusting 6 20.6
2015-Apr-20 15:41 116 1 gusting 5 20.6
2015-Apr-20 15:31 128 1 gusting 4 20.6
2015-Apr-20 15:21 116 1 gusting 4 21.1
2015-Apr-20 15:11 084 2 gusting 5 21.1
2015-Apr-20 15:01 093 2 gusting 4 20.0
2015-Apr-20 14:51 075 2 gusting 6 20.6
2015-Apr-20 14:41 132 2 gusting 6 21.1
2015-Apr-20 14:31 112 2 gusting 6 20.6
2015-Apr-20 14:21 109 2 gusting 6 20.6
2015-Apr-20 14:11 129 2 gusting 6 20.6
2015-Apr-20 14:01 167 1 gusting 5 20.6
2015-Apr-20 13:51 148 1 gusting 4 20.6
2015-Apr-20 13:41 169 2 gusting 6 20.6
2015-Apr-20 13:31 090 3 gusting 6 20.6
2015-Apr-20 13:21 215 4 gusting 6 21.1
2015-Apr-20 13:11 096 4 gusting 6 22.2
2015-Apr-20 13:01 108 2 gusting 5 23.3
2015-Apr-20 12:51 090 4 gusting 8 23.9
2015-Apr-20 12:41 132 2 gusting 5 24.4
2015-Apr-20 12:31 173 2 gusting 5 24.4
2015-Apr-20 12:21 128 4 gusting 6 25.0
2015-Apr-20 12:11 135 3 gusting 5 24.4
2015-Apr-20 12:01 116 2 gusting 6 25.0
2015-Apr-20 11:51 034 4 gusting 6 25.6
2015-Apr-20 11:41 124 3 gusting 6 25.0
2015-Apr-20 11:31 090 2 gusting 6 23.9
2015-Apr-20 11:21 086 2 gusting 6 24.4
2015-Apr-20 11:11 135 2 gusting 6 25.0
2015-Apr-20 11:01 190 4 gusting 6 25.0
2015-Apr-20 10:51 135 4 gusting 6 25.0
2015-Apr-20 10:41 180 4 gusting 6 25.0
2015-Apr-20 10:31 170 3 gusting 7 25.6
2015-Apr-20 10:21 151 2 gusting 6 25.6
2015-Apr-20 10:11 124 2 gusting 2 26.1
2015-Apr-20 10:01 193 2 gusting 6 25.6
2015-Apr-20 09:51 121 2 gusting 5 25.0
2015-Apr-20 09:41 137 1 gusting 4 25.0
2015-Apr-20 09:31 199 1 gusting 4 25.6
2015-Apr-20 09:21 105 0 gusting 2 25.0
2015-Apr-20 09:11 079 0 gusting 1 24.4
2015-Apr-20 09:01 123 0 gusting 1 23.9
2015-Apr-20 08:51 077 1 gusting 1 23.3
2015-Apr-20 08:41 093 0 gusting 1 22.8
2015-Apr-20 08:31 072 1 gusting 2 22.2
2015-Apr-20 08:21 087 1 gusting 4 21.7
2015-Apr-20 08:11 147 0 gusting 1 20.6
2015-Apr-20 08:01 072 0 gusting 1 20.0
2015-Apr-20 07:51 346 0 gusting 1 18.3
2015-Apr-20 07:41 079 1 gusting 1 17.2
2015-Apr-20 07:31 059 1 gusting 4 17.2
2015-Apr-20 07:21 026 1 gusting 2 17.2
2015-Apr-20 07:11 16.7
2015-Apr-20 07:01 018 1 gusting 4 16.1
2015-Apr-20 06:51 038 1 gusting 2 15.6
2015-Apr-20 06:41 338 1 gusting 4 15.0
2015-Apr-20 06:31 018 2 gusting 5 14.4
2015-Apr-20 06:21 009 1 gusting 5 14.4
2015-Apr-20 06:11 009 1 gusting 2 14.4
2015-Apr-20 06:01 026 1 gusting 4 13.9
2015-Apr-20 05:51 003 1 gusting 4 13.9
2015-Apr-20 05:41 019 1 gusting 2 13.3
2015-Apr-20 05:31 043 1 gusting 2 13.3
2015-Apr-20 05:21 022 1 gusting 2 13.3
2015-Apr-20 05:11 001 1 gusting 2 13.3
2015-Apr-20 05:01 010 0 gusting 2 13.3
2015-Apr-20 04:51 024 1 gusting 2 13.3
2015-Apr-20 04:41 002 0 gusting 1 13.3
2015-Apr-20 04:31 005 13.9
2015-Apr-20 04:21 047 13.9
2015-Apr-20 04:11 045 13.9
2015-Apr-20 04:01 042 13.9
2015-Apr-20 03:51 162 13.9
2015-Apr-20 03:41 292 13.9
2015-Apr-20 03:31 268 13.9
2015-Apr-20 03:21 003 0 gusting 0 13.9
2015-Apr-20 03:11 047 0 gusting 1 13.9
2015-Apr-20 03:01 041 0 gusting 1 14.4
2015-Apr-20 02:51 089 14.4
2015-Apr-20 02:41 065 14.4
2015-Apr-20 02:31 069 14.4
2015-Apr-20 02:21 086 14.4
2015-Apr-20 02:11 022 14.4
2015-Apr-20 02:01 135 14.4
2015-Apr-20 01:51 204 14.4
2015-Apr-20 01:41 021 14.4
2015-Apr-20 01:31 086 14.4
2015-Apr-20 01:21 022 15.0
2015-Apr-20 01:11 043 15.0
2015-Apr-20 01:01 022 15.0
2015-Apr-20 00:51 135 15.0
2015-Apr-20 00:41 114 15.0
2015-Apr-20 00:31 085 15.0
2015-Apr-20 00:21 064 15.0
2015-Apr-20 00:11 004 14.4
2015-Apr-20 00:01 048 14.4
2015-Apr-19 23:51 047 14.4
2015-Apr-19 23:41 045 14.4
2015-Apr-19 23:31 002 14.4
2015-Apr-19 23:21 223 14.4
2015-Apr-19 23:11 192 14.4
2015-Apr-19 23:01 022 14.4
2015-Apr-19 22:51 175 14.4
2015-Apr-19 22:41 289 13.9
2015-Apr-19 22:31 180 13.9
2015-Apr-19 22:21 001 13.9
2015-Apr-19 22:11 025 14.4
2015-Apr-19 22:01 173 14.4
2015-Apr-19 21:51 180 14.4
2015-Apr-19 21:41 274 14.4
2015-Apr-19 21:31 117 14.4
2015-Apr-19 21:21 139 15.0
2015-Apr-19 21:11 093 15.0
2015-Apr-19 21:01 292 15.6
2015-Apr-19 20:51 202 15.6
2015-Apr-19 20:41 200 15.6
2015-Apr-19 20:31 114 15.6
2015-Apr-19 20:21 070 16.1
2015-Apr-19 20:11 087 16.1
2015-Apr-19 20:01 072 16.1
2015-Apr-19 19:51 246 16.7
2015-Apr-19 19:41 270 16.7
2015-Apr-19 19:31 114 16.7
2015-Apr-19 19:21 095 0 gusting 1 16.7
2015-Apr-19 19:11 114 17.2
2015-Apr-19 19:01 232 0 gusting 1 17.2
2015-Apr-19 18:51 225 0 gusting 0 17.2
2015-Apr-19 18:41 224 0 gusting 1 17.8
2015-Apr-19 18:31 250 0 gusting 1 17.8
2015-Apr-19 18:21 246 17.8
2015-Apr-19 18:11 114 18.3
2015-Apr-19 18:01 164 0 gusting 1 18.3
2015-Apr-19 17:51 091 0 gusting 2 18.3
2015-Apr-19 17:41 006 0 gusting 2 18.9
2015-Apr-19 17:31 176 1 gusting 2 19.4
2015-Apr-19 17:21 090 1 gusting 2 19.4
2015-Apr-19 17:11 004 1 gusting 1 19.4
2015-Apr-19 17:01 199 0 gusting 2 20.0
2015-Apr-19 16:51 198 0 gusting 2 20.6
2015-Apr-19 16:41 315 1 gusting 2 20.6
2015-Apr-19 16:31 197 1 gusting 4 20.6
2015-Apr-19 16:21 092 1 gusting 6 20.6
2015-Apr-19 16:11 110 2 gusting 6 20.6
2015-Apr-19 16:01 094 4 gusting 7 21.1
2015-Apr-19 15:51 116 2 gusting 7 22.2
2015-Apr-19 15:41 069 4 gusting 6 22.2
2015-Apr-19 15:31 132 2 gusting 5 22.8
2015-Apr-19 15:21 133 3 gusting 6 23.3
2015-Apr-19 15:11 108 4 gusting 6 23.3
2015-Apr-19 15:01 087 4 gusting 6 23.3
2015-Apr-19 14:51 111 4 gusting 6 23.9
2015-Apr-19 14:41 110 3 gusting 6 23.3
2015-Apr-19 14:31 114 4 gusting 6 24.4
2015-Apr-19 14:21 089 4 gusting 7 24.4
2015-Apr-19 14:11 131 4 gusting 7 24.4
2015-Apr-19 14:01 125 4 gusting 5 24.4